Location: Kershaw
(34.5481°N, 80.5823°W)
Time: 15:45:39
(UTC+00:00)

Transit 2A - Pass Details

Date: 07 October 2022
Orbit: 598 x 959 km, 66.7° (Epoch: 06 December)

Event Time Altitude Azimuth Distance (km) Brightness Sun altitude
Rises 12:03:39 0° 339° (NNW) 3,009 8.8 7.7°
Reaches altitude 10° 12:05:55 10° 344° (NNW) 2,140 8.1 8.2°
Maximum altitude 12:10:41 53° 61° (ENE) 906 7.0 9.1°
Drops below altitude 10° 12:15:56 10° 138° (SE) 2,360 9.6 10.2°
Sets 12:18:32 0° 143° (SE) 3,348 10.2 10.7°
